Flag for Austria Weather past 2 weeks in Gänserndorf, Lower Austria, Austria

Now
50 °F

Overcast.


Feels Like: 47 °F
Forecast: 37 / 62 °F
Wind: 7 mph from Northwest

Location: Wien / Schwechat-Flughafen

Current Time: Sep 23, 2014 at 3:05:14 AM

Latest Report: Sep 23, 2014 at 1:00 AM


Visibility: 22 mi

Pressure: 29.96 "Hg

Humidity: 79%

Dew point: 44 °F

Location of GänserndorfLocation

Historic Weather in Gänserndorf — Graph

°F

Gänserndorf temperature yesterday

Maximum temperature yesterday: 65 °F (at 2:00 AM)
Minimum temperature yesterday: 52 °F (at 6:00 PM)
Average temperature yesterday: 58 °F

Past Weeks' High & Low Weather Summary

 TemperatureHumidityPressure
High77 °F (Sep 9, 4:00 PM)100% (Sep 8, 8:00 AM)30.11 "Hg (Sep 8, 8:00 AM)
Low50 °F (Sep 23, 1:00 AM)52% (Sep 21, 2:00 PM)29.79 "Hg (Sep 22, 3:00 AM)
Average62 °F83%29.99 "Hg
* Reported Sep 8 1:00 AM — Sep 23 1:00 AM, Gänserndorf, Weather by CustomWeather, © 2014

Note: Actual official high and low records may vary slightly from our data, if they occured in-between our weather recording intervals... More about our weather records

Advertising

Gänserndorf weather history for previous 24 hours

 ConditionsComfort  
Time TempWeatherWind HumidityBarometerVisibility
1:00 AM
Sep 23
50 °FOvercast.7 mph79%29.96 "Hg22 mi
12:00 AM51 °FPassing clouds.7 mph77%29.97 "Hg10 mi
11:00 PM
Sep 22
52 °FPassing clouds.7 mph76%29.95 "Hg16 mi
10:00 PM52 °FPassing clouds.6 mph75%29.95 "Hg17 mi
9:00 PM53 °FPassing clouds.3 mph80%29.94 "Hg15 mi
8:00 PM53 °FPassing clouds.7 mph80%29.92 "Hg22 mi
7:00 PM53 °FOvercast.5 mph83%29.91 "Hg22 mi
6:00 PM52 °FRain showers. Overcast.8 mph80%29.91 "Hg19 mi
5:00 PM60 °FScattered clouds.5 mph56%29.88 "Hg22 mi
4:00 PM59 °FOvercast.12 mph61%29.88 "Hg22 mi
3:00 PM60 °FOvercast.12 mph62%29.88 "Hg9 mi
2:00 PM60 °FPartly sunny.8 mph60%29.88 "Hg19 mi
1:00 PM59 °FOvercast.9 mph61%29.90 "Hg22 mi
12:00 PM61 °FPartly sunny.10 mph56%29.89 "Hg18 mi
11:00 AM61 °FPartly sunny.12 mph60%29.90 "Hg12 mi
10:00 AM57 °FOvercast.10 mph70%29.91 "Hg16 mi
9:00 AM58 °FOvercast.8 mph74%29.92 "Hg19 mi
8:00 AM57 °FOvercast.9 mph80%29.89 "Hg25 mi
7:00 AM56 °FOvercast.8 mph83%29.88 "Hg28 mi
6:00 AM56 °FOvercast.8 mph86%29.87 "Hg28 mi
5:00 AM55 °FRain showers. Overcast.9 mph91%29.85 "Hg11 mi
4:00 AM62 °FOvercast.8 mph80%29.80 "Hg28 mi
3:00 AM64 °FRain showers. Overcast.10 mph76%29.79 "Hg31 mi
Weather by CustomWeather, © 2014

See weather overviewHow to use our weather pages